Location: Sungai Bunut
(2.6333°N, 113.7333°E)
Time: 16:10:01
(UTC+00:00)

Vanguard 3 - Pass Details

Date: 10 December 2023
Orbit: 508 x 3239 km, 33.3° (Epoch: 21 February)

Event Time Altitude Azimuth Distance (km) Brightness Sun altitude
Rises 08:11:45 0° 227° (SW) 6,324 12.9 27.6°
Reaches altitude 10° 08:15:34 10° 225° (SW) 5,572 12.9 26.7°
Maximum altitude 08:34:02 71° 143° (SE) 3,368 10.6 22.6°
Drops below altitude 10° 08:52:36 10° 62° (ENE) 5,618 10.9 18.4°
Sets 08:56:25 0° 60° (ENE) 6,380 11.1 17.6°
